www.pogodaiklimat.ru

Погода и климат >> Архив погоды >> Россия >> Чукотка >> Константиновская


ПОГОДА в Константиновской

  • Прогноз погоды в Константиновской
  • Монитор погоды в Константиновской
  • Климат города

АРХИВ ПОГОДЫ в Константиновской

Время (UTC), дата Ветер
(напр.,м/с)
 
Видим.   Явления Облачность Т
(С)
Тd
(С)
f
(%)
Тe
(С)
Тes
(С)
Комфортность P
(гПа)
Po
(гПа)
Тmin
(С)
Tmax
(С)
R
(мм)
R24
(мм)
S
(см)
06 12.08 В 1
{5}
50 км 1/0
[Ac trans]
+14.5 -0.9 35 +15 +18 1014.9 1013.9
09 12.08 штиль 0
{4}
50 км 3/3 600 м
[Sc Ci fib]
+8.7 +4.1 73 +8 +8 1014.2 1013.2 +14.7
12 12.08 В 2
{4}
50 км 3/3 600 м
[Sc Ci fib]
+3.7 +1.4 85 +1 +1 1013.7 1012.7
15 12.08 В 3
{6}
50 км 8/4 600 м
[Sc Ac trans Ci fib]
+6.0 +1.5 73 +3 +3 1013.6 1012.6
18 12.08 В 2
{6}
50 км 4/0
[Ac trans]
+5.6 +1.3 74 +3 +4 1014.1 1013.1
21 12.08 В 3
{7}
50 км 3/0
[Ci fib]
+9.8 +1.7 57 +8 +10 1014.7 1013.7 +1.6
00 13.08 В 4
{9}
50 км 3/0
[Ci fib]
+14.1 +0.6 40 +13 +18 1014.7 1013.7
03 13.08 В 2
{8}
50 км 3/0
[Ci fib]
+16.9 +0.6 33 +17 +23 1014.7 1013.7
06 13.08 В 3
{7}
50 км 3/0
[Ci fib]
+17.1 +0.2 32 +17 +19 1014.6 1013.6
09 13.08 В 1
{6}
50 км 3/0
[Ci fib]
+11.6 +4.5 62 +12 +12 1015.7 1014.7 +17.2
12 13.08 В 1
{4}
50 км 3/0
[Ci fib]
+1.7 +0.9 94 -0 -0 1016.8 1015.7
15 13.08 ЮВ 1
{4}
50 км 1/0
[Ci fib]
+0.7 +0.1 96 -1 -1 1017.4 1016.3
18 13.08 В 2
{3}
50 км ясно +3.4 +1.6 88 0 +1 1018.0 1016.9
21 13.08 ЮВ 2
{4}
50 км 3/0
[Ci fib]
+12.0 +3.4 56 +11 +14 1018.1 1017.1 -0.5
00 14.08 ЮВ 2
{5}
50 км 8/0
[Ci]
+16.4 +5.3 48 +17 +22 1017.5 1016.5
03 14.08 В 1
{4}
50 км 10/3 1000 м
[Sc Ac trans Cs]
+17.9 +5.0 43 +19 +22 1017.0 1016.0
06 14.08 СЗ 1
{3}
50 км 10/4 600 м
[Sc Ac trans Cs]
+16.9 +6.4 50 +18 +19 1017.3 1016.3
09 14.08 СЗ 1
{7}
50 км 10/0
[Ac As]
+12.9 +8.2 73 +13 +13 1018.4 1017.4 +18.1
12 14.08 З 1
{3}
50 км 8/0
[Ac lent]
+7.4 +6.5 94 +6 +6 1018.7 1017.7
15 14.08 З 2
{3}
50 км 3/0
[Ac trans]
+7.4 +6.7 95 +5 +5 1018.8 1017.8
18 14.08 З 1
{3}
50 км 4/3 600 м
[Sc Ac trans]
+5.9 +5.4 97 +5 +5 1019.4 1018.3
21 14.08 штиль 0
{3}
50 км 9/9 600 м
[Sc]
+11.1 +9.0 87 +10 +11 1019.7 1018.7 +5.6
00 15.08 ЮЗ 2
{5}
50 км 9/6 600 м
[Sc Ac trans Ci fib]
+15.6 +9.7 68 +16 +17 1019.2 1018.2
03 15.08 ЮЗ 2
{5}
50 км 10/3 600 м
[Sc Ac lent Cs]
+17.3 +11.0 66 +18 +20 1018.0 1017.0
06 15.08 ЮЗ 3
{6}
50 км 10/0
[Cs]
+20.6 +11.2 55 +23 +24 комфорт 1016.9 1015.9
09 15.08 Ю 2
{5}
50 км 8/0
[Ci fib]
+16.2 +11.8 75 +16 +16 1016.2 1015.2 +20.9
12 15.08 Ю 1
{3}
50 км 3/0
[Ci fib]
+11.2 +10.3 94 +11 +11 1015.2 1014.2
15 15.08 Ю 1
{2}
50 км 4/0
[Ac trans Ci fib]
+9.1 +8.5 96 +8 +8 1013.6 1012.6
18 15.08 ЮВ 1
{3}
50 км 3/0
[Ac trans Ci fib]
+9.2 +8.1 93 +8 +9 1011.9 1010.9
21 15.08 ЮЗ 2
{5}
50 км 6/0
[Ci fib]
+17.2 +11.1 67 +18 +20 1009.8 1008.8 +8.2
00 16.08 ЮЗ 3
{8}
50 км 3/0
[Ci fib]
+23.7 +8.1 37 +24 +29 комфорт 1006.8 1005.8
03 16.08 З 3
{8}
50 км 3/0
[Cc]
+26.8 +9.2 33 +27 +32 жарко 1003.7 1002.8
06 16.08 СЗ 2
{8}
50 км 9/0
[Ac trans Cc]
+26.1 +12.1 42 +28 +29 жарко 1001.9 1001.0
09 16.08 штиль 0
{7}
50 км {ливн. осадки} 9/8 600 м
[Cb cap Ac cuf]
+18.2 +14.8 81 +18 +18 1001.7 1000.7 +27.9 0.1
12 16.08 Ю 1
{2}
50 км {ливн. осадки} 10/10 600 м
[Cb cap]
+15.8 +15.1 96 +16 +16 1000.8 999.8
15 16.08 штиль 0
{2}
10 км слабый ливневой дождь 10/10 600 м
[Cb cap]
+15.3 +14.8 97 +15 +15 999.8 998.8
18 16.08 СЗ 3
{9}
4000 м ливневой дождь 10/10 600 м
[Cb cap]
+14.4 +14.0 97 +13 +13 1001.2 1000.2
21 16.08 СЗ 4
{9}
50 км {ливн. осадки} 10/10 300 м
[St]
+10.3 +9.5 95 +8 +8 1003.0 1002.0 +10.3 2
00 17.08 СЗ 3
{8}
2000 м ливневой дождь 10/10 300 м
[Cb cap]
+7.5 +7.1 97 +4 +4 1004.9 1003.9 +7.5
03 17.08 СЗ 3
{8}
50 км {ливн. осадки} 10/10 600 м
[Cb cap]
+8.2 +6.2 87 +5 +5 1006.7 1005.7
06 17.08 СЗ 4
{9}
50 км {ливн. осадки} 9/9 600 м
[Cb cap]
+8.9 +5.3 78 +6 +6 1008.5 1007.5
09 17.08 СЗ 3
{11}
50 км 9/9 600 м
[Sc]
+6.1 +3.5 83 +3 +3 1010.7 1009.7 +10.5 3
12 17.08 СЗ 2
{8}
50 км 10/10 300 м
[St]
+4.9 +4.2 95 +2 +2 1012.0 1011.0
15 17.08 СЗ 2
{5}
50 км 9/8 300 м
[Sc Ac trans]
+4.6 +3.6 93 +2 +2 1012.8 1011.8
18 17.08 С 1
{5}
50 км 10/10 300 м
[Sc]
+4.6 +3.4 92 +3 +3 1013.8 1012.8
21 17.08 З 1
{3}
50 км 9/9 300 м
[Cb cap]
+6.0 +3.6 85 +5 +5 1014.6 1013.6 +4.6
00 18.08 СЗ 2
{5}
50 км 9/5 600 м
[Cu med, cong Ci fib]
+9.7 +1.9 58 +8 +11 1014.2 1013.2
03 18.08 С 1
{4}
50 км 9/3 600 м
[Cu hum Ac cuf Ci fib]
+11.0 +1.9 53 +11 +14 1013.7 1012.7
06 18.08 С 1
{4}
50 км 9/0
[Ac trans Ci sp]
+9.3 +3.0 65 +9 +11 1013.0 1012.0
09 18.08 С 1
{4}
50 км 3/0
[Ac trans Ci fib]
+5.2 +2.7 84 +4 +4 1013.5 1012.5 +11.4
12 18.08 С 1
{2}
50 км 3/0
[Ac trans Ci fib]
+1.0 +0.5 96 -1 -1 1013.8 1012.7
15 18.08 З 1
{2}
50 км 6/0
[Ac trans Ci fib]
-0.9 -1.3 97 -3 -3 1013.6 1012.5
18 18.08 З 1
{2}
50 км местами туман поземный 8/0
[Ac trans Ci fib]
+0.2 -0.1 98 -2 -2 1014.1 1013.0
21 18.08 В 1
{3}
50 км 4/4 600 м
[Cu hum]
+6.5 +3.9 83 +5 +7 1014.4 1013.4 -1.3
00 19.08 В 1
{2}
50 км 1/0
[Ci fib]
+11.8 +3.2 56 +12 +19 1014.1 1013.1

 

Местоположение метеостанции Константиновская (Чукотка, Россия): широта 68.15 долгота 161.10 высота над уровнем моря 8 м.

В архиве по умолчанию представлена погода в Константиновской за последнюю неделю. Архивные данные за месяц целиком и за предыдущие месяцы, начиная с января 2011 года, Вы можете получить, выбрав интересующий диапазон дат из раскрывающегося списка и нажав кнопку "Ввод!".

Внимание! Время в таблицах - всемирное. Для получения местного времени необходимо прибавить поправку, которая в Константиновской равна 12 ч.

Смотрите также архив погоды в соседних городах и на ближайших метеорологических станциях:

Погода в Анюйске (Чукотка, Россия) (28 км)
Погода в Черском (Якутия, Россия) (65 км)
Погода в Колымской (Якутия, Россия) (120 км)
Погода на Островном (Чукотка, Россия) (124 км)
Погода в Бухте Амбарчик (Чукотка, Россия) (170 км)
Погода в Билибино (Чукотка, Россия) (220 км)
Погода в Баимке (Чукотка, Россия) (224 км)
Погода в Раучуе (Чукотка, Россия) (264 км)
Погода в Андрюшкино (Якутия, Россия) (290 км)
Погода в Илирнее (Чукотка, Россия) (304 км)

Пояснения к столбцам:

Ветер - указаны скорость ветра в м/с - средняя за 10 мин, порывы в срок и между сроками (в фигурных скобках) и направление, откуда дует ветер: С - северный, СВ - северо-восточный, В - восточный, ЮВ - юго-восточный, Ю - южный, ЮЗ - юго-западный, З - западный, СЗ - северо-западный.
Видимость - горизонтальная дальность видимости в метрах или километрах. При видимости от 1 до 10 км при отсутствии осадков обычно наблюдается дымка, при ухудшении видимости до 1 км и менее - туман. В сухую погоду видимость может ухудшаться дымом, пылью или мглою.
Явления - указаны атмосферные явления, наблюдавшиеся в срок или в последний час перед сроком; фигурными скобками обозначены явления, наблюдавшиеся между сроками (за 1-3 часа до срока); квадратными скобками обозначены град или гололедные отложения с указанием их диаметра в мм.
Облачность - указаны через наклонную черту общая и нижняя облачность в баллах и высота нижней границы облаков в метрах; квадратными скобками обозначены формы облаков: Ci - перистые, Cs - перисто-слоистые, Cc - перисто-кучевые, Ac - высококучевые, As - высокослоистые, Sc - слоисто-кучевые, Ns - слоисто-дождевые, Cu - кучевые, Cb - кучево-дождевые. Подробнее классификацию облаков см. в Атласе облаков (PDF).
T - Температура воздуха - температура, измеренная на высоте 2 м над землей.
Td - Температура точки росы - температура, при понижении до которой содержащийся в воздухе водяной пар достигнет насыщения.
f - Относительная влажность воздуха - влажноcть воздуха, измеренная на высоте 2 м над землей.
Te - Эффективная температура - температура, которую ощущает одетый по сезону человек в тени. Характеристика душности погоды. При расчете учитывается влияние влажности воздуха и скорости ветра на теплоощущения человека.
Tes - Эффективная температура на солнце - температура, которую ощущает человек, с поправкой на солнечный нагрев. Характеристика знойности погоды. Зависит от высоты солнца над горизонтом, облачности и скорости ветра. Ночью, в пасмурную погоду, а также при ветре 12 м/с и более поправка равна нулю.
P - Атмосферное давление - приведенное к уровню моря атмосферное давление.
Po - Атмосферное давление - измеренное на уровне метеостанции атмосферное давление.
Tmin - Минимальная температура - минимум температуры воздуха на высоте 2 м над землей.
Tmax - Максимальная температура - максимум температуры воздуха на высоте 2 м над землей.
R - Количество осадков - Количество выпавших осадков за период времени, мм. При наведении курсора мыши на число - период времени, за который выпало указанное количество осадков.
R24 - Количество осадков - Количество выпавших осадков за 24 часа, мм.
S - Снежный покров - Высота снежного покрова, см. При наведении курсора мыши на число - состояние снежного покрова и степень покрытия местности в баллах.